This is the latest recevied weather packets stored in our database for station/object KC1OEK-13. If no packets are shown the sender has not sent any weather packets the latest 10 day(s).
| Time | Temp. | Humidity | Pressure | Rain* | Wind** | Luminosity | Snow |
|---|---|---|---|---|---|---|---|
| 1777406942 | 19.44° C | 39% | 1020.3 hPa | 0 mm | - | 287 W/m² | - |
| 1777406642 | 19.44° C | 39% | 1020.1 hPa | 0 mm | - | 387 W/m² | - |
| 1777406338 | 19.44° C | 38% | 1020.4 hPa | 0 mm | - | 448 W/m² | - |
| 1777406037 | 18.89° C | 38% | 1020.4 hPa | 0 mm | - | 319 W/m² | - |
| 1777405734 | 19.44° C | 38% | 1020.5 hPa | 0 mm | - | 323 W/m² | - |
| 1777405430 | 18.89° C | 39% | 1020.6 hPa | 0 mm | - | 333 W/m² | - |
| 1777405128 | 19.44° C | 40% | 1020.7 hPa | 0 mm | - | 350 W/m² | - |
| 1777404826 | 18.89° C | 40% | 1020.9 hPa | 0 mm | - | 513 W/m² | - |
| 1777404523 | 19.44° C | 39% | 1020.8 hPa | 0 mm | - | 257 W/m² | - |
| 1777404219 | 20.56° C | 39% | 1020.9 hPa | 0 mm | - | 449 W/m² | - |
| 1777403915 | 20° C | 43% | 1020.9 hPa | 0 mm | - | 596 W/m² | - |
| 1777403614 | 20° C | 38% | 1020.9 hPa | 0 mm | - | 638 W/m² | - |
| 1777403310 | 20.56° C | 38% | 1020.7 hPa | 0 mm | - | 618 W/m² | - |
| 1777403004 | 20.56° C | 37% | 1020.9 hPa | 0 mm | - | 545 W/m² | - |
| 1777402700 | 20.56° C | 38% | 1021 hPa | 0 mm | - | 626 W/m² | - |
| 1777402394 | 20° C | 39% | 1020.9 hPa | 0 mm | - | 635 W/m² | - |
| 1777402092 | 20.56° C | 37% | 1020.9 hPa | 0 mm | - | 645 W/m² | - |
| 1777401788 | 20° C | 40% | 1021.2 hPa | 0 mm | - | 596 W/m² | - |
| 1777401483 | 19.44° C | 45% | 1021.2 hPa | 0 mm | - | 582 W/m² | - |
| 1777401178 | 20° C | 38% | 1021.2 hPa | 0 mm | - | 539 W/m² | - |
| 1777400874 | 19.44° C | 41% | 1021.4 hPa | 0 mm | - | 534 W/m² | - |
| 1777400571 | 19.44° C | 41% | 1021.4 hPa | 0 mm | - | 553 W/m² | - |
| 1777400269 | 20° C | 42% | 1021.2 hPa | 0 mm | - | 612 W/m² | - |
| 1777399964 | 20° C | 45% | 1021.4 hPa | 0 mm | - | 638 W/m² | - |
| 1777399661 | 19.44° C | 39% | 1021.3 hPa | 0 mm | - | 596 W/m² | - |
* Rain latest hour (hover to see other rain measurements)
** Current wind speed in m/s (hover to see current wind gust speed)